RH
90 90 90 90 91 91 91 90 89 87 86 85 83 81 80 78 76 75 73 72 73 71 70 73 75 78 80 85 91 95 97 100 101 100 100 100 100 100 100 100 100 100 100 100 100 100 100 100 100 100 99 97 97 96 94 92 91 90 90 89 88 88 88
90 91 91 90 90 90 90 90 90 89 88 88 87 85 83 80 79 78 76 75 74 71 70 68 66 65 63 62 68 72 74 81 89 95 98 100 100 100 100 100 100 100 100 100 100 100 100 100 100 100 99 99 100 99 98 96 95 94 93 92 91 90 90
89 90 91 91 90 88 88 88 88 87 87 87 87 86 86 84 81 80 78 77 75 73 72 70 68 67 63 59 59 57 54 54 61 69 77 84 91 97 100 100 101 101 100 100 100 100 100 100 100 101 100 100 100 100 100 99 98 98 97 96 95 94 93
84 86 87 88 87 86 86 85 85 85 85 85 85 85 86 86 85 83 81 79 78 75 73 71 69 67 64 61 60 58 54 49 47 47 49 53 60 70 80 87 92 97 98 99 100 98 98 99 97 97 99 99 99 99 99 99 99 99 98 98 97 96 95
76 78 80 81 82 83 83 83 82 83 82 82 83 83 83 85 86 85 83 81 78 76 73 71 69 67 64 62 60 59 56 52 49 45 41 39 38 41 47 54 62 71 77 81 85 85 88 92 88 82 82 85 87 88 90 92 93 93 94 95 94 93 93
68 70 72 74 77 80 81 82 81 81 81 81 81 81 81 82 83 84 84 83 80 76 73 70 68 65 63 61 60 58 56 54 51 48 44 40 37 33 33 34 35 40 45 50 57 66 76 83 82 73 67 66 65 65 67 71 73 75 78 81 85 86 87
61 63 65 67 70 75 79 82 84 85 85 82 81 81 80 78 79 80 82 83 81 79 76 72 68 65 61 60 58 56 55 54 51 49 46 43 41 38 35 32 29 28 29 29 34 48 63 71 73 70 62 53 47 44 45 48 51 53 55 58 62 66 69
55 56 58 61 64 68 75 82 88 90 88 86 90 91 85 78 75 74 76 78 79 78 76 74 71 67 63 60 57 55 53 52 50 48 46 43 41 40 37 34 31 27 26 25 24 30 41 48 54 55 48 40 34 32 32 35 38 39 39 40 41 45 50
51 51 52 55 58 62 68 77 88 94 91 93 100 99 91 83 76 71 70 70 72 73 73 72 70 67 65 61 58 55 52 50 49 47 45 43 40 38 36 33 32 29 27 27 25 25 28 31 36 38 33 28 26 26 27 29 29 29 32 33 33 39 42
48 49 50 50 52 56 60 68 82 93 94 95 100 101 98 93 83 74 68 65 65 66 66 66 66 64 63 61 59 56 53 50 48 45 44 42 40 38 36 33 31 30 28 27 27 29 29 26 29 33 30 27 28 28 28 28 27 26 28 27 27 35 41
46 47 49 49 50 52 55 58 69 83 93 97 99 100 100 98 92 82 72 65 63 61 60 59 60 59 59 59 57 56 53 51 49 46 43 42 40 39 38 37 35 32 30 29 30 33 33 28 28 34 35 31 29 29 28 29 29 27 26 25 23 26 30
45 46 47 48 50 51 53 54 57 67 81 92 97 100 101 100 97 88 75 66 62 60 58 54 53 54 55 56 55 54 52 50 49 48 45 42 40 39 39 39 40 40 39 36 34 36 38 35 31 35 38 34 28 27 27 27 28 27 26 25 23 22 21
45 45 45 46 47 49 50 52 54 56 64 73 80 92 101 101 95 89 79 69 62 58 55 52 49 49 49 50 52 51 51 50 48 47 46 43 41 39 39 40 41 44 47 44 40 39 42 43 39 37 41 40 34 30 27 25 25 24 24 24 23 22 21
45 44 45 44 44 45 45 47 51 51 54 58 59 75 100 104 93 84 78 70 62 54 50 49 47 45 44 45 45 45 47 48 47 47 47 45 41 39 39 40 40 41 44 45 44 40 39 42 41 40 41 42 39 34 30 27 25 23 23 23 22 22 21
46 44 45 44 42 43 41 41 45 46 49 52 50 65 94 100 82 70 64 60 54 48 46 46 44 42 40 39 39 41 43 43 46 48 49 47 43 42 42 41 41 42 42 43 45 41 36 35 37 38 38 37 37 36 33 30 27 25 25 24 23 22 21
47 46 45 44 43 43 40 38 41 41 44 47 45 58 79 78 62 53 50 48 46 43 42 42 40 40 38 35 36 37 37 41 47 50 49 46 45 47 50 49 48 48 46 46 47 45 41 40 41 42 40 39 38 38 36 34 31 29 28 27 27 24 22
49 48 47 46 45 45 43 40 39 40 42 42 43 53 63 59 50 47 43 40 40 40 40 38 38 39 37 34 33 32 35 42 45 45 46 48 54 63 67 65 61 55 49 45 45 44 44 47 48 46 44 42 41 39 38 36 34 32 31 31 31 29 27
52 51 50 49 48 46 45 43 40 40 41 41 44 49 53 53 52 48 42 38 36 36 37 37 38 38 37 37 34 30 33 37 38 50 67 75 81 84 82 77 72 64 52 43 42 43 42 43 42 39 38 37 36 37 37 36 37 36 35 34 33 33 33
55 53 52 50 50 48 47 44 42 40 40 40 42 45 50 55 54 47 43 40 35 33 34 35 37 35 37 41 36 31 32 31 41 72 96 99 97 96 92 87 79 65 52 44 43 41 37 33 32 30 30 30 31 33 35 36 38 37 35 35 35 36 37
56 55 53 51 50 48 46 45 42 39 38 38 38 42 49 52 48 43 43 41 35 31 30 31 35 35 36 39 37 34 31 26 45 87 107 100 97 99 98 89 70 53 50 49 43 37 31 29 28 28 28 30 30 31 33 34 35 35 34 36 36 35 38
56 55 52 51 49 47 46 45 43 41 39 37 36 39 44 46 43 42 45 44 39 35 30 30 34 35 37 39 37 34 30 32 59 96 104 93 96 103 99 84 61 48 49 47 38 33 31 28 28 28 29 32 34 34 33 32 32 33 35 36 36 36 37
57 56 55 53 53 53 51 50 49 49 48 47 44 42 43 46 46 46 47 48 44 40 35 33 33 33 36 40 40 37 39 48 64 74 68 65 79 89 81 66 54 47 43 37 33 33 31 29 30 31 33 39 42 38 34 31 31 33 34 35 36 36 37
60 61 60 58 57 56 54 53 55 56 55 54 53 49 47 48 49 49 51 52 50 47 44 40 36 34 35 38 40 41 44 48 47 42 39 42 52 57 51 44 43 42 38 35 35 33 31 32 33 33 38 46 45 38 34 32 31 32 34 34 34 36 39
63 63 61 59 57 54 53 54 58 59 57 54 53 50 48 48 49 50 52 55 54 52 51 48 44 39 36 35 37 39 42 42 40 38 39 40 40 42 42 41 42 42 43 44 42 37 36 37 35 36 40 44 42 38 36 35 34 35 37 37 37 38 40
65 64 62 59 56 52 51 51 55 56 55 55 57 54 49 48 50 51 54 56 56 57 64 73 73 62 48 40 37 38 40 41 41 40 40 40 41 42 42 43 44 45 48 50 49 47 45 42 40 41 41 41 40 39 37 37 38 40 42 42 41 39 38
66 64 62 60 56 53 51 49 50 52 54 61 69 67 58 53 53 53 55 56 56 58 69 82 83 71 57 49 46 45 44 43 43 43 42 43 44 45 45 47 48 50 52 53 51 52 52 49 48 48 45 44 45 43 40 41 42 41 41 41 39 37 36
68 64 61 60 57 53 51 48 49 51 56 66 75 73 65 60 57 56 56 56 56 57 61 66 64 58 55 55 54 51 48 46 45 45 45 46 48 50 50 50 51 54 56 55 54 56 56 55 56 55 53 54 55 52 49 49 47 44 42 40 39 39 37
66 63 62 62 59 56 52 48 48 53 59 67 73 73 69 64 60 58 60 59 59 61 64 63 59 54 53 55 56 55 55 53 51 50 51 53 54 54 54 53 53 55 54 55 60 63 63 63 63 61 59 59 60 58 56 56 56 53 50 48 48 46 42
63 61 61 63 62 59 56 51 49 54 61 66 71 74 73 69 65 63 63 63 65 69 70 66 60 56 55 56 59 62 66 67 65 63 61 61 59 58 57 56 55 55 55 58 64 67 67 67 66 63 61 60 60 60 60 61 60 58 57 58 57 53 50
65 61 62 63 61 59 59 56 54 56 61 65 68 71 72 71 68 66 65 65 68 72 72 68 62 59 59 60 62 66 71 75 76 75 72 70 67 65 62 61 60 60 61 63 64 64 63 65 66 64 63 63 63 62 61 61 61 60 61 62 60 59 57
66 64 64 64 62 61 61 61 61 63 66 68 69 70 70 70 68 67 66 67 70 71 69 66 64 62 61 62 64 66 70 74 76 75 74 73 71 68 66 65 65 67 69 71 71 69 68 68 69 69 68 67 68 67 64 63 62 62 63 63 62 63 61
64 63 64 65 66 66 65 66 68 71 73 74 73 72 70 70 68 67 68 70 72 72 67 65 67 66 64 64 65 66 68 71 72 71 71 73 72 69 67 67 69 72 74 75 75 75 73 72 72 72 73 73 73 73 71 68 66 66 66 67 67 66 64
65 66 66 67 68 70 71 72 74 76 78 79 79 77 74 73 70 69 70 71 72 70 66 66 68 68 67 66 66 66 68 71 71 71 70 70 69 67 65 67 71 74 74 73 73 74 74 73 72 74 76 76 76 77 76 74 72 71 72 72 71 69 69
68 69 70 71 72 74 76 77 78 79 80 82 83 82 82 80 76 71 70 71 72 71 70 70 71 70 70 70 70 70 72 74 73 72 69 67 66 65 64 65 68 71 72 71 72 72 72 72 73 75 77 77 76 76 75 74 72 71 71 71 71 70 71
70 72 74 75 75 75 77 80 81 82 82 83 84 86 89 89 82 74 70 70 72 72 72 73 72 71 71 72 72 73 74 75 74 72 69 68 66 65 65 65 66 69 71 73 74 74 74 74 75 75 75 75 73 72 71 69 67 67 66 66 66 66 66
73 74 76 77 76 77 79 80 81 81 81 82 83 87 92 92 86 79 75 73 72 72 73 73 73 72 72 72 73 74 75 76 76 74 73 72 70 69 68 67 67 68 72 75 78 78 77 77 75 73 72 72 71 69 68 66 65 66 65 64 64 64 63
Wind_Speed
18 18 18 17 17 16 15 14 14 13 13 13 13 13 13 14 14 14 13 12 12 12 12 12 12 11 10 8 7 6 5 5 5 3 3 3 2 2 2 3 4 6 5 3 2 3 5 6 7 7 8 8 8 8 9 10 10 11 11 12 13 14 14
18 18 18 18 18 17 16 15 15 15 14 14 14 14 13 13 13 13 13 13 12 11 11 11 12 12 12 11 10 9 9 8 7 5 4 4 3 2 2 1 3 4 4 2 1 2 3 6 6 5 6 7 6 6 7 7 7 8 8 9 10 10 12
19 18 18 19 19 18 17 17 16 16 15 15 15 15 14 15 15 14 14 14 14 14 12 11 10 11 12 12 11 11 11 10 10 8 7 6 5 4 3 2 0 1 2 2 1 2 4 6 6 5 5 6 5 6 7 6 6 6 6 6 7 7 9
20 19 19 19 19 20 19 19 18 18 17 17 16 16 15 15 16 15 15 15 15 16 15 14 12 12 11 12 11 11 12 12 11 11 10 8 7 6 5 5 3 2 3 2 2 3 5 7 8 7 6 7 6 7 7 7 7 6 6 7 7 6 7
21 21 20 20 20 21 21 20 20 20 20 19 19 18 17 16 16 16 16 16 15 16 16 16 15 15 14 13 13 12 12 12 12 12 12 11 10 8 7 6 6 5 4 4 4 4 4 6 9 9 9 9 8 9 9 7 7 7 7 7 8 8 8
22 22 21 21 20 21 21 20 20 20 20 20 21 21 21 20 18 17 17 16 16 16 16 16 16 16 16 16 15 14 13 13 13 13 13 13 12 11 9 8 8 7 6 5 4 4 4 4 7 10 10 10 10 11 12 9 7 8 8 8 9 10 9
23 22 21 21 20 20 20 19 19 19 19 20 22 24 24 23 21 20 19 17 17 17 17 17 17 17 17 17 17 17 16 16 15 14 14 15 14 14 13 11 11 10 8 7 5 5 5 5 8 11 11 11 12 12 13 13 11 10 10 9 10 11 11
25 24 22 21 20 19 18 17 17 17 18 20 24 26 27 26 24 22 21 20 19 19 18 17 18 18 18 18 18 18 18 18 18 18 17 17 16 16 15 14 14 13 12 10 8 8 8 7 11 13 12 13 15 13 12 13 12 12 11 10 10 12 13
25 24 23 21 19 18 17 16 15 15 15 20 25 28 28 28 28 25 24 22 21 20 20 18 18 18 18 18 18 18 18 18 19 20 20 19 19 19 18 16 15 14 14 13 11 11 11 11 12 14 14 15 15 14 13 13 13 13 13 12 11 12 15
25 24 23 22 20 18 17 15 15 15 12 14 23 28 30 30 31 29 27 25 23 22 21 20 19 18 18 18 18 18 18 17 18 19 19 19 20 20 20 19 18 16 15 14 13 13 14 14 14 15 17 16 16 15 14 14 14 14 15 14 12 12 14
26 24 23 22 21 20 18 16 15 16 14 11 15 24 30 32 32 31 30 28 26 24 23 22 20 20 19 19 19 19 19 18 18 19 19 18 17 18 19 19 20 19 17 15 14 14 15 16 15 16 18 19 18 18 17 16 17 16 17 18 16 16 16
27 25 23 22 21 20 19 18 17 16 17 17 14 18 27 32 32 33 31 29 28 25 24 24 22 21 20 19 19 19 19 20 19 19 20 19 17 16 17 17 18 18 19 17 15 15 16 17 16 16 18 20 20 21 20 19 19 19 19 20 20 21 20
28 27 26 24 22 21 20 19 19 18 18 20 19 18 25 31 32 32 32 31 29 27 25 25 24 23 21 20 19 19 19 20 20 20 21 21 18 16 16 16 15 16 17 18 17 16 16 17 18 18 19 20 20 21 22 22 22 21 21 22 22 23 23
28 28 27 26 25 24 21 19 20 20 19 21 20 18 23 31 31 31 32 32 30 28 26 26 25 24 22 20 20 20 19 20 20 20 21 21 20 19 18 17 15 15 16 17 18 18 17 17 19 19 20 20 20 21 22 23 23 22 22 23 23 24 24
29 29 28 28 27 27 25 21 20 21 20 21 20 19 24 31 31 30 32 31 30 28 26 25 25 24 23 21 20 20 20 19 20 20 21 22 22 21 20 19 17 16 16 16 18 20 19 18 19 20 21 21 21 22 23 23 24 23 23 24 25 24 24
29 29 29 28 28 28 27 23 21 21 21 21 20 20 26 31 30 28 29 30 29 28 26 25 24 24 23 21 19 19 19 17 18 20 22 22 21 21 21 21 19 18 17 17 18 20 20 20 20 20 21 22 22 23 23 24 24 23 22 24 25 25 23
28 28 28 28 28 28 28 26 23 22 22 21 20 21 26 30 29 27 27 28 28 27 26 25 23 22 23 22 19 18 16 16 17 19 21 21 21 20 21 22 21 20 18 18 19 20 19 19 19 20 20 21 21 22 23 24 25 23 21 23 24 24 24
28 28 27 27 27 26 27 27 25 23 23 21 20 22 25 28 29 28 26 26 26 26 26 25 23 22 21 21 20 17 14 15 16 17 20 21 20 20 20 22 23 22 20 21 22 21 19 19 19 20 19 19 19 20 20 22 22 20 20 22 23 23 24
28 28 27 27 26 26 25 26 24 23 22 21 19 20 23 26 28 28 27 26 26 26 25 25 24 23 20 20 20 18 15 13 12 15 21 22 21 21 22 24 25 24 23 24 24 23 22 22 21 20 19 19 19 18 18 19 19 19 20 22 22 22 22
28 28 28 26 26 25 24 23 23 21 21 20 18 17 20 24 27 28 27 27 27 26 25 25 25 23 21 20 21 20 17 13 9 14 22 24 21 21 23 25 26 25 24 26 27 26 26 25 23 21 20 19 18 17 18 19 18 18 19 21 22 21 21
29 29 29 27 27 26 24 24 23 22 21 21 19 17 18 23 26 25 26 27 26 25 25 24 24 24 22 21 22 22 19 14 10 15 23 25 21 21 23 27 29 27 27 28 28 28 28 27 25 22 20 18 17 17 19 19 18 18 18 19 21 21 22
30 31 31 29 28 27 26 25 24 22 21 22 23 21 20 22 23 23 24 25 25 24 23 22 23 23 22 22 22 22 20 17 16 20 24 24 22 23 26 29 29 28 28 28 28 28 27 26 24 22 19 17 17 18 19 18 17 18 19 19 20 20 22
30 30 31 30 29 28 27 26 24 22 21 22 23 23 22 21 21 21 22 23 24 22 21 20 20 20 20 21 22 22 20 20 21 22 22 22 23 25 27 28 27 27 27 26 26 26 25 23 21 20 19 18 20 20 19 18 17 18 19 19 19 19 20
30 30 30 31 31 30 28 26 24 23 23 22 22 22 20 19 19 20 21 22 22 21 20 20 19 19 19 19 20 21 21 21 22 21 21 22 22 24 25 25 24 24 22 22 22 21 21 20 19 19 19 20 21 21 20 19 18 17 18 19 19 19 19
29 30 31 32 32 31 30 28 27 26 25 24 22 21 20 19 19 20 21 22 22 20 18 17 17 18 19 19 19 19 20 21 21 21 21 22 21 22 22 22 21 20 19 19 19 18 18 18 17 17 19 20 20 20 20 19 18 17 17 18 18 19 19
29 30 31 32 32 32 31 30 28 27 26 24 22 23 23 22 21 21 22 22 22 20 18 16 17 20 21 22 21 20 20 21 20 20 20 20 20 20 20 19 19 18 18 19 18 18 18 17 16 17 18 18 18 18 18 17 17 18 18 18 19 20 20
29 30 31 31 31 31 31 29 28 27 26 24 24 25 27 27 26 25 24 24 23 22 22 21 22 22 23 23 23 22 21 20 19 18 18 19 18 18 18 18 18 18 19 19 18 17 17 15 15 16 17 16 16 17 16 16 17 19 19 18 19 20 21
29 29 29 29 30 31 31 30 27 26 25 25 25 27 29 29 29 28 27 27 26 26 26 26 26 25 24 23 23 22 21 20 19 18 18 18 18 18 19 19 19 19 19 19 17 17 17 16 16 17 18 17 18 18 17 16 16 18 18 18 18 20 20
29 28 27 27 29 30 31 30 28 25 25 25 26 27 29 30 30 29 28 28 28 28 29 29 29 27 26 25 24 23 22 21 21 20 20 19 18 19 19 19 19 20 20 18 17 18 18 19 19 19 19 19 19 19 17 16 17 17 18 18 18 19 19
29 29 27 27 28 27 28 30 29 27 27 27 27 27 28 29 29 29 28 28 27 28 30 30 30 29 27 26 25 24 23 22 22 22 22 21 20 20 20 19 20 20 20 19 19 19 20 19 20 20 19 19 20 19 18 18 18 18 18 18 18 18 18
28 28 27 27 27 27 26 27 28 28 28 28 28 28 28 29 29 28 27 27 27 29 31 30 30 30 28 26 26 26 24 23 23 24 24 23 23 22 21 21 20 20 20 20 20 20 20 20 21 21 20 20 20 20 20 19 18 18 18 18 18 18 18
27 27 26 26 26 27 27 26 25 26 27 28 29 29 29 29 29 28 28 27 28 30 31 30 30 30 28 27 26 26 25 24 24 24 24 24 24 24 23 22 21 21 21 21 22 22 22 22 22 22 21 20 20 20 20 20 19 18 18 18 18 18 18
28 27 26 25 25 25 26 26 25 25 25 27 28 29 29 29 29 29 28 28 29 31 31 30 30 30 28 27 26 26 25 25 25 25 25 24 25 25 24 23 22 22 23 24 24 23 23 23 22 22 21 20 20 20 20 20 19 18 18 18 19 18 18
28 27 27 27 26 25 25 25 25 25 26 26 27 28 29 30 30 29 28 28 29 31 31 30 30 30 28 27 26 25 25 25 25 25 25 24 24 24 24 23 23 24 25 25 25 24 24 23 22 21 21 21 21 20 20 20 19 19 18 19 19 19 19
31 29 28 28 28 27 26 26 26 26 26 26 26 25 26 29 31 30 29 28 29 30 30 30 30 30 28 27 26 25 25 25 25 25 25 25 25 25 25 25 25 25 26 26 26 26 25 24 23 22 22 22 21 21 20 20 19 18 18 19 19 19 19
34 32 30 30 29 28 27 27 26 27 27 26 26 25 26 28 31 31 30 29 29 29 30 30 30 30 29 27 26 25 25 25 25 25 25 26 26 26 26 26 26 26 26 26 26 26 26 25 24 23 22 22 22 21 20 20 19 19 19 18 18 19 19
Wind_Direction
341 341 340 340 340 341 341 339 339 339 340 341 341 340 340 340 341 343 346 347 347 348 348 349 350 349 348 347 346 348 351 351 347 336 325 315 292 288 246 206 166 140 127 72 4 294 294 294 287 289 291 290 291 290 286 285 286 287 286 284 283 280 277
341 341 340 338 337 336 337 337 337 336 337 338 339 338 338 338 338 338 339 339 338 341 346 346 345 344 342 341 341 343 344 344 345 345 346 350 339 337 355 217 177 160 168 169 25 329 299 299 299 302 306 307 312 306 299 298 296 294 294 291 289 289 285
341 340 339 338 335 334 334 335 335 335 334 334 335 336 336 337 337 337 337 338 337 337 339 339 336 334 334 336 337 338 339 338 338 337 337 343 345 338 339 343 313 230 238 218 262 326 317 309 307 311 314 315 320 316 312 315 312 309 311 305 298 296 293
339 338 337 336 334 333 333 333 334 334 333 332 331 331 333 334 336 336 336 336 336 335 335 334 332 329 329 331 330 328 332 332 332 334 334 332 335 331 322 321 323 318 310 292 289 317 332 325 312 304 301 303 303 301 303 308 311 313 315 314 309 301 295
335 335 335 333 333 332 332 332 332 331 331 331 329 328 327 328 331 334 334 334 333 333 333 332 331 330 329 330 328 323 323 324 323 326 328 327 328 326 318 313 309 303 298 297 303 317 332 330 315 301 290 292 294 290 287 289 297 303 307 307 304 300 298
332 332 332 331 331 330 329 329 329 329 328 326 326 325 323 322 323 326 329 331 331 330 330 329 328 328 327 326 328 326 323 321 319 319 319 319 320 321 320 315 306 297 289 288 290 288 294 311 306 295 288 289 294 292 288 287 293 296 299 299 294 291 293
329 329 329 328 327 326 326 325 326 328 326 325 326 323 320 319 319 320 322 327 329 328 328 327 326 326 325 324 324 325 324 321 317 317 316 315 314 314 316 315 310 304 295 288 276 261 262 271 278 282 286 289 292 294 294 295 296 294 294 295 292 289 286
326 325 326 325 323 322 320 318 321 322 325 331 331 324 319 317 316 317 318 321 325 325 325 325 325 325 325 325 324 323 324 322 318 317 316 315 313 311 310 310 310 309 305 299 289 273 266 262 266 273 279 281 285 290 293 296 300 299 297 298 300 298 290
323 322 321 320 319 317 313 310 309 311 327 344 337 325 320 317 314 314 314 317 321 322 322 322 322 322 322 323 323 321 321 320 317 316 316 316 315 313 311 308 307 307 307 304 299 290 283 278 276 281 282 281 286 292 296 299 301 298 294 295 301 299 294
321 320 319 317 315 314 309 304 298 294 309 343 340 329 322 316 313 312 311 314 317 318 319 319 319 320 320 318 318 316 315 314 312 312 313 314 315 315 314 312 309 307 305 303 303 298 293 291 293 296 295 294 297 301 304 304 300 298 296 294 294 288 287
318 318 316 315 314 312 309 304 296 288 283 297 327 330 322 313 310 309 309 312 315 315 317 317 317 318 317 316 316 313 312 311 309 308 307 308 310 311 311 311 310 308 305 303 302 297 294 295 298 299 299 299 301 302 305 307 304 305 305 300 297 289 285
317 316 315 313 312 310 309 305 299 291 283 277 286 312 314 306 303 304 305 308 311 313 315 315 315 316 316 316 314 311 311 310 309 307 305 303 303 303 304 305 305 305 303 300 299 295 294 295 295 295 295 296 299 299 301 303 304 306 306 302 301 296 293
316 315 314 313 311 308 307 305 301 295 289 282 278 290 303 299 296 299 302 304 307 311 314 313 313 313 314 314 312 309 309 307 306 306 303 300 299 298 297 298 297 297 296 296 295 293 293 294 294 293 293 294 297 298 298 298 299 301 301 299 300 298 297
314 314 313 312 310 309 306 304 302 296 292 289 284 287 297 294 291 295 300 302 306 309 312 312 311 311 312 312 311 308 307 305 304 303 300 299 299 298 295 294 293 290 288 290 290 289 289 290 292 292 292 293 296 297 297 298 297 298 298 297 297 297 297
313 312 312 311 310 309 307 305 303 298 294 293 289 288 291 290 289 293 296 300 304 307 309 310 310 310 309 310 310 309 308 307 304 301 299 299 301 300 296 294 293 290 287 287 288 289 290 290 290 291 293 296 299 298 298 298 298 298 300 298 296 293 293
311 310 310 311 310 309 308 307 305 301 298 295 293 291 290 290 292 293 294 298 303 306 308 308 308 309 309 308 308 308 308 307 303 299 299 300 300 299 298 297 295 291 290 289 287 290 293 294 294 295 297 299 300 299 299 298 298 300 302 299 295 295 297
309 309 309 310 310 309 309 308 307 305 302 299 298 296 294 295 297 296 295 298 301 304 307 307 308 310 309 308 307 306 306 305 300 298 300 301 300 299 299 299 296 292 291 290 287 288 292 293 294 295 296 297 297 296 298 297 298 301 300 296 297 300 301
309 309 309 309 309 308 308 308 309 307 305 304 302 298 298 299 300 300 300 299 299 302 305 307 309 310 310 310 307 305 305 302 301 306 308 306 303 301 300 296 294 294 295 292 289 290 292 291 292 292 293 292 291 292 293 293 294 297 296 295 297 300 300
310 309 309 309 309 308 308 308 308 308 306 305 303 300 299 299 299 302 305 302 300 301 303 305 308 309 311 309 304 304 307 301 304 316 313 304 300 298 295 290 289 294 297 295 295 297 297 295 294 295 295 291 288 288 287 285 287 291 293 294 294 294 295
312 310 310 310 310 310 311 311 311 310 308 305 303 301 299 298 299 303 305 303 302 302 303 305 307 307 308 305 301 303 305 299 305 315 304 295 295 296 291 287 289 294 297 297 299 302 301 300 300 301 300 295 293 289 284 283 287 290 290 289 288 288 287
313 312 312 314 315 316 319 320 319 318 315 312 309 307 303 301 302 304 304 303 303 304 303 304 305 305 305 302 298 300 303 299 295 292 285 283 287 287 282 283 290 295 296 296 299 300 300 301 304 305 303 299 294 287 284 286 290 289 287 284 285 285 282
315 316 317 318 320 321 322 324 322 320 317 314 312 312 311 307 306 306 304 303 304 305 305 303 302 301 302 300 298 299 301 296 284 276 276 280 283 279 279 284 290 293 294 295 296 296 297 300 303 303 302 298 291 286 287 290 289 286 284 283 283 284 283
317 317 317 318 319 319 320 321 319 315 312 309 308 309 310 308 306 306 306 305 305 308 308 304 301 299 299 298 297 298 297 293 287 285 285 286 283 281 285 289 291 292 292 292 292 293 296 298 299 300 299 295 291 291 293 293 290 287 284 281 280 280 280
316 316 315 316 316 317 318 319 316 312 310 308 306 305 304 304 304 306 308 307 306 308 309 307 304 301 297 295 296 297 298 296 295 295 293 290 288 289 292 294 295 295 295 293 293 295 296 296 296 296 294 292 292 295 297 297 294 288 282 280 279 277 275
314 314 314 314 314 315 316 316 314 311 311 312 310 307 305 306 307 308 308 307 307 307 309 308 305 301 298 298 298 297 297 296 297 297 296 296 296 296 296 296 297 297 296 295 297 298 297 296 296 293 289 290 292 295 295 295 292 287 282 281 280 278 276
313 312 311 311 312 313 313 313 313 312 313 314 311 308 307 309 309 308 306 304 303 302 298 293 290 291 295 299 300 298 295 294 294 294 294 296 297 297 297 299 300 300 299 298 299 299 297 297 294 289 288 291 293 292 292 293 291 288 286 285 284 282 279
310 309 309 309 310 310 310 310 311 312 313 312 308 305 306 307 309 309 307 304 302 300 295 290 288 291 294 296 297 297 295 293 292 293 294 297 299 299 299 301 302 301 299 299 300 300 298 295 291 289 293 297 294 292 294 294 291 289 289 290 291 289 286
308 308 309 309 308 308 308 309 310 312 312 309 304 302 304 305 307 308 308 306 306 305 301 298 297 298 300 299 300 300 300 298 298 300 300 301 300 300 300 301 301 300 300 302 303 299 296 295 293 293 297 297 294 294 297 296 292 291 294 296 294 291 291
309 310 310 308 306 306 307 307 309 310 309 305 302 300 300 302 304 305 305 305 306 304 300 299 300 302 303 304 305 305 303 301 301 302 302 301 301 299 299 300 300 300 301 302 299 293 292 292 292 294 296 295 293 294 295 294 293 295 297 298 296 294 294
311 312 312 308 306 305 305 305 308 308 306 303 301 299 298 298 299 301 301 301 300 297 295 295 298 300 301 302 302 301 300 298 298 298 299 300 300 299 299 299 299 299 299 297 293 290 291 292 292 294 295 294 292 293 293 293 295 297 297 297 297 296 295
310 310 310 308 307 306 303 302 304 304 303 301 300 298 297 297 297 298 297 297 295 292 291 292 294 296 297 298 297 296 295 294 293 294 296 298 299 299 300 299 299 298 295 292 290 290 291 292 292 293 293 291 290 290 292 293 295 295 295 294 295 294 294
310 310 309 308 307 307 306 304 303 302 300 299 299 299 298 298 297 296 295 293 290 288 288 290 291 292 293 294 293 293 292 291 292 293 295 296 297 298 298 298 298 297 293 290 289 289 290 290 290 290 289 287 286 287 289 291 293 293 293 292 290 291 292
312 311 310 309 308 307 306 306 305 302 300 298 297 297 298 297 296 294 292 290 288 286 287 289 289 289 291 291 291 291 291 290 291 292 294 294 294 295 296 296 295 293 291 290 289 289 288 288 288 287 286 284 284 285 287 289 291 292 291 290 289 289 290
314 313 312 311 310 309 307 307 306 303 301 299 297 296 297 296 293 292 291 289 287 286 287 288 287 287 288 288 288 288 287 287 288 290 291 292 293 295 295 296 295 293 291 290 290 289 288 289 288 286 285 285 285 286 287 289 291 291 290 290 290 289 289
316 316 315 313 312 311 310 309 306 303 301 299 297 296 296 293 292 292 292 290 287 286 286 286 286 286 286 285 285 285 284 285 287 289 291 293 294 295 295 296 294 293 291 290 290 289 288 288 287 286 285 285 285 286 287 288 289 289 289 289 289 289 288
315 316 314 312 312 313 312 309 307 305 302 300 299 299 297 293 292 293 294 292 289 288 286 286 286 286 287 286 285 284 284 285 287 288 290 291 292 293 293 293 293 292 290 289 287 286 286 285 285 285 284 284 284 284 285 287 288 289 289 290 291 291 291